Location: Wildcat Hills Observatory
(41.6350°N, 103.6812°W)
Time: 02:24:30
(UTC-07:00)

Cosmos 1634 Rocket - Visible Passes

Search period start: 13 December 2017 00:00
Search period end: 23 December 2017 00:00
Orbit: 960 x 992 km, 82.9° (Epoch: 12 December)

Date Brightness Start Highest point End Pass type
(mag) Time Alt. Az. Time Alt. Az. Time Alt. Az.
13 Dec 5.6 03:34:38 28° SE 03:34:38 28° SE 03:37:47 10° SE visible
13 Dec 5.2 05:19:25 23° WSW 05:19:25 23° WSW 05:22:21 10° SW visible
13 Dec 4.1 16:55:24 10° S 17:01:36 89° E 17:07:54 10° N visible
13 Dec 6.6 18:44:48 10° W 18:47:55 14° WNW 18:51:03 10° NW visible
14 Dec 5.6 04:01:26 25° SSE 04:01:26 25° SSE 04:03:52 10° SSE visible
14 Dec 4.9 17:21:15 10° SSW 17:27:15 51° WNW 17:33:21 10° N visible
15 Dec 5.9 04:28:09 16° S 04:28:09 16° S 04:29:17 10° S visible
15 Dec 5.9 17:47:47 10° SW 17:53:03 29° WNW 17:58:26 10° NNW visible
16 Dec 6.5 18:15:20 10° WSW 18:19:06 16° WNW 18:22:54 10° NNW visible
17 Dec 4.7 16:52:26 10° SSW 16:58:32 60° W 17:04:45 10° N visible
18 Dec 5.7 17:18:47 10° SW 17:24:19 33° WNW 17:29:57 10° N visible
19 Dec 6.4 17:46:01 10° WSW 17:50:18 19° WNW 17:54:37 10° NNW visible
21 Dec 5.5 16:49:50 10° SW 16:55:35 38° WNW 17:01:25 10° N visible
22 Dec 6.3 17:16:49 10° WSW 17:21:31 22° WNW 17:26:16 10° NNW visible
